| time (UTC) | temp F | wind direction | speed MPH | gust MPH | rain 1hr in | rain 24hr in | rain mn in | humidity % | barometer mb |
| 20260904101236 | 89 | 94 | 2.0 | 5.0 | 0.00 | 0.00 | 0.00 | 40 | 1019.7 |
| 20260904100837 | 88 | 100 | 0.0 | 3.0 | 0.00 | 0.00 | 0.00 | 42 | 1019.8 |
| 20260904095737 | 88 | 69 | 1.0 | 3.0 | 0.00 | 0.00 | 0.00 | 41 | 1019.9 |
| 20260904095235 | 87 | 109 | 1.0 | 3.0 | 0.00 | 0.00 | 0.00 | 43 | 1019.9 |
| 20260904094735 | 86 | 116 | 0.0 | 3.0 | 0.00 | 0.00 | 0.00 | 44 | 1019.9 |
| 20260904094235 | 85 | 96 | 1.0 | 5.0 | 0.00 | 0.00 | 0.00 | 44 | 1019.9 |
| 20260904093735 | 85 | 63 | 4.0 | 5.0 | 0.00 | 0.00 | 0.00 | 45 | 1019.9 |
| 20260904093233 | 85 | 94 | 2.0 | 4.0 | 0.00 | 0.00 | 0.00 | 47 | 1019.9 |
| 20260904092732 | 84 | 97 | 2.0 | 4.0 | 0.00 | 0.00 | 0.00 | 48 | 1019.9 |
| 20260904092236 | 84 | 85 | 1.0 | 4.0 | 0.00 | 0.00 | 0.00 | 49 | 1020.0 |
| 20260904091733 | 84 | 87 | 1.0 | 4.0 | 0.00 | 0.00 | 0.00 | 50 | 1020.0 |
| 20260904091546 | 83 | 102 | 1.0 | 4.0 | 0.00 | 0.00 | 0.00 | 51 | 1020.0 |
| 20260904090734 | 83 | 76 | 2.0 | 4.0 | 0.00 | 0.00 | 0.00 | 52 | 1020.0 |
| 20260904090246 | 82 | 83 | 1.0 | 4.0 | 0.00 | 0.00 | 0.00 | 53 | 1020.0 |
| 20260904085733 | 82 | 104 | 1.0 | 3.0 | 0.00 | 0.00 | 0.00 | 55 | 1019.9 |
| 20260904085233 | 81 | 247 | 0.0 | 5.0 | 0.00 | 0.00 | 0.00 | 55 | 1020.0 |
| 20260904084734 | 81 | 89 | 1.0 | 5.0 | 0.00 | 0.00 | 0.00 | 56 | 1020.0 |
| 20260904084542 | 80 | 94 | 1.0 | 5.0 | 0.00 | 0.00 | 0.00 | 57 | 1020.0 |
| 20260904083734 | 80 | 102 | 1.0 | 4.0 | 0.00 | 0.00 | 0.00 | 58 | 1020.0 |
| 20260904083233 | 80 | 82 | 2.0 | 4.0 | 0.00 | 0.00 | 0.00 | 57 | 1019.9 |
| 20260904082732 | 80 | 79 | 0.0 | 3.0 | 0.00 | 0.00 | 0.00 | 57 | 1019.9 |
| 20260904082237 | 79 | 92 | 0.0 | 3.0 | 0.00 | 0.00 | 0.00 | 57 | 1019.9 |
| 20260904081733 | 78 | 75 | 0.0 | 2.0 | 0.00 | 0.00 | 0.00 | 59 | 1019.9 |
| 20260904081415 | 77 | 89 | 0.0 | 3.0 | 0.00 | 0.00 | 0.00 | 61 | 1020.0 |
| 20260904081338 | 78 | 82 | 0.0 | 2.0 | 0.00 | 0.00 | 0.00 | 61 | 1020.0 |
| 20260904080231 | 76 | 78 | 1.0 | 3.0 | 0.00 | 0.00 | 0.00 | 63 | 1020.0 |
| 20260904075730 | 76 | 99 | 1.0 | 3.0 | 0.00 | 0.00 | 0.00 | 62 | 1020.0 |
| 20260904075235 | 76 | 79 | 1.0 | 3.0 | 0.00 | 0.00 | 0.00 | 64 | 1020.2 |
| 20260904074731 | 75 | 80 | 0.0 | 3.0 | 0.00 | 0.00 | 0.00 | 66 | 1020.2 |
| 20260904074232 | 75 | 83 | 0.0 | 1.0 | 0.00 | 0.00 | 0.00 | 67 | 1020.2 |
| 20260904073731 | 74 | 63 | 0.0 | 2.0 | 0.00 | 0.00 | 0.00 | 68 | 1020.2 |
| 20260904073545 | 73 | 63 | 0.0 | 2.0 | 0.00 | 0.00 | 0.00 | 68 | 1020.0 |
| 20260904072731 | 73 | 103 | 1.0 | 2.0 | 0.00 | 0.00 | 0.00 | 69 | 1020.2 |
| 20260904072230 | 72 | 51 | 0.0 | 1.0 | 0.00 | 0.00 | 0.00 | 70 | 1020.2 |
| 20260904071732 | 71 | 3 | 0.0 | 1.0 | 0.00 | 0.00 | 0.00 | 71 | 1020.2 |
| 20260904071231 | 70 | 265 | 0.0 | 1.0 | 0.00 | 0.00 | 0.00 | 71 | 1020.2 |
| 20260904071051 | 70 | 142 | 0.0 | 1.0 | 0.00 | 0.00 | 0.00 | 72 | 1020.2 |
| 20260904070404 | 69 | 130 | 0.0 | 1.0 | 0.00 | 0.00 | 0.00 | 72 | 1020.2 |
| 20260904070331 | 69 | 185 | 0.0 | 1.0 | 0.00 | 0.00 | 0.00 | 72 | 1020.2 |
| 20260904065230 | 68 | 93 | 0.0 | 1.0 | 0.00 | 0.00 | 0.00 | 73 | 1020.2 |
| 20260904064826 | 68 | 102 | 0.0 | 1.0 | 0.00 | 0.00 | 0.00 | 74 | 1020.0 |
| 20260904064035 | 66 | 133 | 0.0 | 0.0 | 0.00 | 0.00 | 0.00 | 78 | 1020.0 |
| 20260904063543 | 64 | 134 | 0.0 | 0.0 | 0.00 | 0.00 | 0.00 | 83 | 1020.0 |
| 20260904062729 | 62 | 134 | 0.0 | 0.0 | 0.00 | 0.00 | 0.00 | 84 | 1020.0 |
| 20260904062232 | 62 | 134 | 0.0 | 0.0 | 0.00 | 0.00 | 0.00 | 85 | 1019.9 |
| 20260904061730 | 61 | 134 | 0.0 | 0.0 | 0.00 | 0.00 | 0.00 | 87 | 1019.9 |
| 20260904061232 | 59 | 226 | 0.0 | 0.0 | 0.00 | 0.00 | 0.00 | 90 | 1019.9 |
| 20260904060730 | 58 | 226 | 0.0 | 0.0 | 0.00 | 0.00 | 0.00 | 90 | 1019.8 |
| 20260904060229 | 58 | 226 | 0.0 | 0.0 | 0.00 | 0.00 | 0.00 | 89 | 1019.8 |
| 20260904055730 | 57 | 226 | 0.0 | 0.0 | 0.00 | 0.00 | 0.00 | 90 | 1019.9 |
| 20260904055226 | 57 | 226 | 0.0 | 0.0 | 0.00 | 0.00 | 0.00 | 90 | 1019.9 |
| 20260904055037 | 57 | 226 | 0.0 | 0.0 | 0.00 | 0.00 | 0.00 | 90 | 1019.8 |
| 20260904054229 | 57 | 226 | 0.0 | 0.0 | 0.00 | 0.00 | 0.00 | 90 | 1019.9 |
| 20260904053730 | 57 | 226 | 0.0 | 0.0 | 0.00 | 0.00 | 0.00 | 90 | 1019.7 |
| 20260904053542 | 56 | 226 | 0.0 | 0.0 | 0.00 | 0.00 | 0.00 | 90 | 1019.7 |
| 20260904052728 | 56 | 226 | 0.0 | 0.0 | 0.00 | 0.00 | 0.00 | 90 | 1019.8 |
| 20260904052230 | 56 | 226 | 0.0 | 0.0 | 0.00 | 0.00 | 0.00 | 89 | 1019.7 |
| 20260904051729 | 56 | 221 | 0.0 | 0.0 | 0.00 | 0.00 | 0.00 | 89 | 1019.7 |
| 20260904051229 | 57 | 223 | 0.0 | 0.0 | 0.00 | 0.00 | 0.00 | 89 | 1019.8 |
| 20260904050731 | 57 | 223 | 0.0 | 1.0 | 0.00 | 0.00 | 0.00 | 89 | 1019.7 |
| 20260904050229 | 57 | 223 | 0.0 | 1.0 | 0.00 | 0.00 | 0.00 | 89 | 1019.5 |
| 20260904045727 | 57 | 223 | 0.0 | 1.0 | 0.00 | 0.00 | 0.00 | 89 | 1019.5 |
| 20260904045542 | 57 | 221 | 0.0 | 1.0 | 0.00 | 0.00 | 0.00 | 89 | 1019.6 |
| 20260904044728 | 57 | 223 | 0.0 | 1.0 | 0.00 | 0.00 | 0.00 | 88 | 1019.5 |
| 20260904044229 | 57 | 221 | 0.0 | 1.0 | 0.00 | 0.00 | 0.00 | 88 | 1019.5 |
| 20260904043727 | 57 | 221 | 0.0 | 1.0 | 0.00 | 0.00 | 0.00 | 87 | 1019.6 |
| 20260904043536 | 58 | 221 | 0.0 | 1.0 | 0.00 | 0.00 | 0.00 | 87 | 1019.6 |
| 20260904042728 | 58 | 223 | 0.0 | 0.0 | 0.00 | 0.00 | 0.00 | 87 | 1019.5 |
| 20260904042227 | 58 | 221 | 0.0 | 0.0 | 0.00 | 0.00 | 0.00 | 87 | 1019.5 |
| 20260904041728 | 58 | 223 | 0.0 | 0.0 | 0.00 | 0.00 | 0.00 | 87 | 1019.5 |
| 20260904041540 | 58 | 223 | 0.0 | 0.0 | 0.00 | 0.00 | 0.00 | 87 | 1019.5 |
| 20260904040726 | 58 | 221 | 0.0 | 0.0 | 0.00 | 0.00 | 0.00 | 87 | 1019.5 |
| 20260904040226 | 58 | 223 | 0.0 | 0.0 | 0.00 | 0.00 | 0.00 | 86 | 1019.5 |
| 20260904035726 | 58 | 223 | 0.0 | 0.0 | 0.00 | 0.00 | 0.00 | 86 | 1019.6 |
| 20260904035534 | 58 | 223 | 0.0 | 0.0 | 0.00 | 0.00 | 0.00 | 86 | 1019.6 |
| 20260904034724 | 59 | 223 | 0.0 | 0.0 | 0.00 | 0.00 | 0.00 | 85 | 1019.7 |
| 20260904034228 | 59 | 223 | 0.0 | 0.0 | 0.00 | 0.00 | 0.00 | 84 | 1019.7 |
| 20260904033725 | 59 | 221 | 0.0 | 0.0 | 0.00 | 0.00 | 0.00 | 84 | 1019.8 |
| 20260904033228 | 59 | 223 | 0.0 | 0.0 | 0.00 | 0.00 | 0.00 | 84 | 1019.8 |
| 20260904033035 | 59 | 223 | 0.0 | 0.0 | 0.00 | 0.00 | 0.00 | 84 | 1019.8 |
| 20260904032226 | 59 | 223 | 0.0 | 0.0 | 0.00 | 0.00 | 0.00 | 84 | 1019.8 |
| 20260904031725 | 60 | 221 | 0.0 | 0.0 | 0.00 | 0.00 | 0.00 | 84 | 1019.8 |
| 20260904031227 | 60 | 221 | 0.0 | 1.0 | 0.00 | 0.00 | 0.00 | 84 | 1019.8 |
| 20260904030726 | 60 | 223 | 0.0 | 2.0 | 0.00 | 0.00 | 0.00 | 83 | 1019.9 |
| 20260904030226 | 60 | 223 | 0.0 | 2.0 | 0.00 | 0.00 | 0.00 | 82 | 1020.0 |
| 20260904025725 | 60 | 282 | 0.0 | 0.0 | 0.00 | 0.00 | 0.00 | 81 | 1020.0 |
| 20260904025536 | 60 | 282 | 0.0 | 0.0 | 0.00 | 0.00 | 0.00 | 81 | 1019.9 |
| 20260904024727 | 60 | 282 | 0.0 | 0.0 | 0.00 | 0.00 | 0.00 | 81 | 1019.9 |
| 20260904024536 | 61 | 282 | 0.0 | 0.0 | 0.00 | 0.00 | 0.00 | 80 | 1020.0 |
| 20260904023725 | 61 | 282 | 0.0 | 0.0 | 0.00 | 0.00 | 0.00 | 79 | 1020.0 |
| 20260904023223 | 61 | 282 | 0.0 | 0.0 | 0.00 | 0.00 | 0.00 | 79 | 1020.2 |
| 20260904022723 | 61 | 282 | 0.0 | 0.0 | 0.00 | 0.00 | 0.00 | 78 | 1020.2 |
| 20260904022225 | 62 | 282 | 0.0 | 1.0 | 0.00 | 0.00 | 0.00 | 78 | 1020.2 |
| 20260904022028 | 62 | 282 | 0.0 | 1.0 | 0.00 | 0.00 | 0.00 | 78 | 1020.3 |
| 20260904021548 | 62 | 282 | 0.0 | 1.0 | 0.00 | 0.00 | 0.00 | 78 | 1020.4 |
| 20260904020724 | 62 | 282 | 0.0 | 0.0 | 0.00 | 0.00 | 0.00 | 78 | 1020.4 |
| 20260904020223 | 62 | 282 | 0.0 | 1.0 | 0.00 | 0.00 | 0.00 | 78 | 1020.5 |
| 20260904020035 | 62 | 282 | 0.0 | 1.0 | 0.00 | 0.00 | 0.00 | 78 | 1020.5 |
| 20260904015224 | 62 | 282 | 0.0 | 1.0 | 0.00 | 0.00 | 0.00 | 78 | 1020.5 |
| 20260904014724 | 62 | 282 | 0.0 | 1.0 | 0.00 | 0.00 | 0.00 | 78 | 1020.6 |
| 20260904014223 | 62 | 282 | 0.0 | 1.0 | 0.00 | 0.00 | 0.00 | 78 | 1020.6 |
| 20260904013725 | 62 | 281 | 0.0 | 1.0 | 0.00 | 0.00 | 0.00 | 77 | 1020.6 |
| 20260904013223 | 62 | 281 | 0.0 | 1.0 | 0.00 | 0.00 | 0.00 | 77 | 1020.7 |
| 20260904012725 | 62 | 281 | 1.0 | 1.0 | 0.00 | 0.00 | 0.00 | 77 | 1020.7 |
| 20260904012223 | 62 | 281 | 1.0 | 1.0 | 0.00 | 0.00 | 0.00 | 77 | 1020.7 |
| 20260904011723 | 62 | 281 | 0.0 | 0.0 | 0.00 | 0.00 | 0.00 | 75 | 1020.7 |
| 20260904011528 | 62 | 281 | 0.0 | 1.0 | 0.00 | 0.00 | 0.00 | 75 | 1020.8 |
| 20260904010722 | 63 | 281 | 1.0 | 1.0 | 0.00 | 0.00 | 0.00 | 74 | 1020.9 |
| 20260904010226 | 63 | 281 | 0.0 | 1.0 | 0.00 | 0.00 | 0.00 | 74 | 1020.9 |
| 20260904005723 | 63 | 281 | 1.0 | 1.0 | 0.00 | 0.00 | 0.00 | 75 | 1020.9 |
| 20260904005223 | 63 | 281 | 1.0 | 1.0 | 0.00 | 0.00 | 0.00 | 74 | 1020.9 |
| 20260904005028 | 63 | 281 | 1.0 | 1.0 | 0.00 | 0.00 | 0.00 | 73 | 1021.0 |
| 20260904004224 | 64 | 281 | 1.0 | 1.0 | 0.00 | 0.00 | 0.00 | 72 | 1021.0 |
| 20260904003853 | 65 | 281 | 1.0 | 1.0 | 0.00 | 0.00 | 0.00 | 72 | 1021.1 |
| 20260904003820 | 64 | 281 | 1.0 | 1.0 | 0.00 | 0.00 | 0.00 | 71 | 1021.1 |
| 20260904002722 | 64 | 281 | 1.0 | 1.0 | 0.00 | 0.00 | 0.00 | 73 | 1021.2 |
| 20260904002530 | 63 | 281 | 0.0 | 2.0 | 0.00 | 0.00 | 0.00 | 74 | 1021.2 |
| 20260904001722 | 63 | 281 | 1.0 | 2.0 | 0.00 | 0.00 | 0.00 | 74 | 1021.3 |
| 20260904001222 | 62 | 281 | 1.0 | 1.0 | 0.00 | 0.00 | 0.00 | 73 | 1021.4 |
| 20260904000721 | 62 | 281 | 1.0 | 1.0 | 0.00 | 0.00 | 0.00 | 72 | 1021.4 |
| 20260904000223 | 63 | 281 | 0.0 | 1.0 | 0.00 | 0.00 | 0.00 | 72 | 1021.4 |
| 20260903235721 | 63 | 281 | 1.0 | 1.0 | 0.00 | 0.00 | 0.00 | 71 | 1021.5 |
| 20260903235222 | 63 | 281 | 0.0 | 1.0 | 0.00 | 0.00 | 0.00 | 70 | 1021.4 |
| 20260903234723 | 63 | 281 | 0.0 | 1.0 | 0.00 | 0.00 | 0.00 | 70 | 1021.4 |
| 20260903234221 | 63 | 281 | 0.0 | 1.0 | 0.00 | 0.00 | 0.00 | 70 | 1021.4 |
| 20260903233721 | 64 | 281 | 1.0 | 1.0 | 0.00 | 0.00 | 0.00 | 70 | 1021.6 |
| 20260903233537 | 64 | 281 | 1.0 | 1.0 | 0.00 | 0.00 | 0.00 | 69 | 1021.6 |
| 20260903232721 | 64 | 281 | 0.0 | 1.0 | 0.00 | 0.00 | 0.00 | 68 | 1021.6 |
| 20260903232221 | 65 | 281 | 0.0 | 1.0 | 0.00 | 0.00 | 0.00 | 68 | 1021.6 |
| 20260903231721 | 65 | 281 | 1.0 | 1.0 | 0.00 | 0.00 | 0.00 | 68 | 1021.6 |
| 20260903231222 | 65 | 281 | 1.0 | 1.0 | 0.00 | 0.00 | 0.00 | 68 | 1021.6 |
| 20260903230721 | 65 | 281 | 1.0 | 1.0 | 0.00 | 0.00 | 0.00 | 69 | 1021.6 |
| 20260903230219 | 64 | 281 | 0.0 | 1.0 | 0.00 | 0.00 | 0.00 | 69 | 1021.6 |
| 20260903225722 | 65 | 281 | 1.0 | 2.0 | 0.00 | 0.00 | 0.00 | 69 | 1021.6 |
| 20260903225226 | 65 | 281 | 1.0 | 2.0 | 0.00 | 0.00 | 0.00 | 68 | 1021.7 |
| 20260903224720 | 65 | 281 | 1.0 | 1.0 | 0.00 | 0.00 | 0.00 | 67 | 1021.7 |
| 20260903224220 | 65 | 281 | 0.0 | 1.0 | 0.00 | 0.00 | 0.00 | 67 | 1021.8 |
| 20260903223722 | 65 | 281 | 1.0 | 1.0 | 0.00 | 0.00 | 0.00 | 67 | 1021.8 |
| 20260903223221 | 65 | 281 | 1.0 | 1.0 | 0.00 | 0.00 | 0.00 | 68 | 1021.8 |
| 20260903222721 | 65 | 281 | 1.0 | 1.0 | 0.00 | 0.00 | 0.00 | 67 | 1021.8 |
| 20260903222232 | 65 | 281 | 1.0 | 1.0 | 0.00 | 0.00 | 0.00 | 66 | 1021.8 |
| 20260903221719 | 65 | 281 | 0.0 | 1.0 | 0.00 | 0.00 | 0.00 | 66 | 1021.8 |
| 20260903221218 | 65 | 281 | 1.0 | 1.0 | 0.00 | 0.00 | 0.00 | 66 | 1021.9 |
| 20260903221044 | 66 | 281 | 0.0 | 1.0 | 0.00 | 0.00 | 0.00 | 65 | 1021.9 |
| 20260903220218 | 66 | 281 | 0.0 | 2.0 | 0.00 | 0.00 | 0.00 | 65 | 1022.0 |
| 20260903215718 | 66 | 281 | 1.0 | 2.0 | 0.00 | 0.00 | 0.00 | 65 | 1022.1 |
| 20260903215527 | 67 | 281 | 1.0 | 1.0 | 0.00 | 0.00 | 0.00 | 65 | 1022.0 |
| 20260903214718 | 67 | 281 | 1.0 | 1.0 | 0.00 | 0.00 | 0.00 | 63 | 1022.1 |
| 20260903214217 | 67 | 281 | 0.0 | 2.0 | 0.00 | 0.00 | 0.00 | 63 | 1022.1 |
| 20260903214029 | 67 | 281 | 0.0 | 2.0 | 0.00 | 0.00 | 0.00 | 62 | 1022.1 |
| 20260903213217 | 68 | 281 | 1.0 | 2.0 | 0.00 | 0.00 | 0.00 | 62 | 1022.1 |
| 20260903213027 | 68 | 281 | 0.0 | 2.0 | 0.00 | 0.00 | 0.00 | 60 | 1022.2 |
| 20260903212219 | 69 | 281 | 1.0 | 2.0 | 0.00 | 0.00 | 0.00 | 60 | 1022.1 |
| 20260903211717 | 69 | 281 | 2.0 | 2.0 | 0.00 | 0.00 | 0.00 | 59 | 1022.1 |
| 20260903211230 | 70 | 279 | 1.0 | 2.0 | 0.00 | 0.00 | 0.00 | 59 | 1022.1 |
| 20260903210719 | 71 | 279 | 1.0 | 1.0 | 0.00 | 0.00 | 0.00 | 56 | 1022.1 |
| 20260903210217 | 71 | 279 | 1.0 | 2.0 | 0.00 | 0.00 | 0.00 | 55 | 1022.1 |
| 20260903205719 | 70 | 279 | 1.0 | 2.0 | 0.00 | 0.00 | 0.00 | 56 | 1022.1 |
| 20260903205216 | 70 | 279 | 1.0 | 1.0 | 0.00 | 0.00 | 0.00 | 57 | 1022.1 |
| 20260903205029 | 70 | 279 | 1.0 | 2.0 | 0.00 | 0.00 | 0.00 | 58 | 1022.1 |
| 20260903204527 | 70 | 279 | 1.0 | 2.0 | 0.00 | 0.00 | 0.00 | 59 | 1022.2 |
| 20260903203717 | 70 | 278 | 2.0 | 2.0 | 0.00 | 0.00 | 0.00 | 59 | 1022.1 |
| 20260903203650 | 71 | 279 | 1.0 | 3.0 | 0.00 | 0.00 | 0.00 | 58 | 1022.2 |
| 20260903203645 | 71 | 276 | 1.0 | 2.0 | 0.00 | 0.00 | 0.00 | 59 | 1022.2 |
| 20260903202217 | 71 | 283 | 2.0 | 3.0 | 0.00 | 0.00 | 0.00 | 57 | 1022.2 |
| 20260903201716 | 71 | 285 | 2.0 | 3.0 | 0.00 | 0.00 | 0.00 | 58 | 1022.2 |
| 20260903201228 | 71 | 283 | 2.0 | 2.0 | 0.00 | 0.00 | 0.00 | 58 | 1022.2 |
| 20260903200719 | 71 | 282 | 2.0 | 2.0 | 0.00 | 0.00 | 0.00 | 58 | 1022.2 |
| 20260903200217 | 71 | 281 | 2.0 | 3.0 | 0.00 | 0.00 | 0.00 | 58 | 1022.1 |
| 20260903195718 | 71 | 283 | 2.0 | 3.0 | 0.00 | 0.00 | 0.00 | 57 | 1022.1 |
| 20260903195218 | 72 | 283 | 2.0 | 2.0 | 0.00 | 0.00 | 0.00 | 56 | 1022.1 |
| 20260903194717 | 73 | 283 | 2.0 | 2.0 | 0.00 | 0.00 | 0.00 | 54 | 1022.1 |
| 20260903194524 | 74 | 282 | 1.0 | 2.0 | 0.00 | 0.00 | 0.00 | 54 | 1022.0 |
| 20260903193715 | 74 | 281 | 2.0 | 2.0 | 0.00 | 0.00 | 0.00 | 51 | 1022.0 |
| 20260903193215 | 75 | 281 | 1.0 | 2.0 | 0.00 | 0.00 | 0.00 | 50 | 1022.0 |
| 20260903192716 | 76 | 283 | 2.0 | 2.0 | 0.00 | 0.00 | 0.00 | 49 | 1021.9 |
| 20260903192215 | 75 | 283 | 1.0 | 2.0 | 0.00 | 0.00 | 0.00 | 49 | 1021.8 |
| 20260903191715 | 75 | 283 | 2.0 | 2.0 | 0.00 | 0.00 | 0.00 | 51 | 1021.9 |
| 20260903191214 | 76 | 281 | 2.0 | 2.0 | 0.00 | 0.00 | 0.00 | 50 | 1021.8 |
| 20260903190850 | 78 | 276 | 1.0 | 1.0 | 0.00 | 0.00 | 0.00 | 46 | 1021.8 |
| 20260903190816 | 77 | 276 | 2.0 | 2.0 | 0.00 | 0.00 | 0.00 | 48 | 1021.8 |
| 20260903185715 | 79 | 276 | 0.0 | 0.0 | 0.00 | 0.00 | 0.00 | 45 | 1021.7 |
| 20260903185217 | 79 | 276 | 0.0 | 0.0 | 0.00 | 0.00 | 0.00 | 45 | 1021.6 |
| 20260903184715 | 79 | 276 | 0.0 | 0.0 | 0.00 | 0.00 | 0.00 | 44 | 1021.6 |
| 20260903184214 | 79 | 276 | 0.0 | 1.0 | 0.00 | 0.00 | 0.00 | 43 | 1021.6 |
| 20260903183716 | 79 | 275 | 0.0 | 1.0 | 0.00 | 0.00 | 0.00 | 43 | 1021.6 |
| 20260903183214 | 80 | 276 | 0.0 | 2.0 | 0.00 | 0.00 | 0.00 | 44 | 1021.6 |
| 20260903182713 | 81 | 290 | 1.0 | 2.0 | 0.00 | 0.00 | 0.00 | 41 | 1021.6 |
| 20260903182212 | 82 | 290 | 1.0 | 2.0 | 0.00 | 0.00 | 0.00 | 40 | 1021.6 |
| 20260903181716 | 82 | 290 | 1.0 | 1.0 | 0.00 | 0.00 | 0.00 | 39 | 1021.6 |
| 20260903181213 | 82 | 290 | 1.0 | 1.0 | 0.00 | 0.00 | 0.00 | 39 | 1021.6 |
| 20260903180714 | 83 | 290 | 1.0 | 1.0 | 0.00 | 0.00 | 0.00 | 39 | 1021.6 |
| 20260903180213 | 82 | 290 | 1.0 | 1.0 | 0.00 | 0.00 | 0.00 | 39 | 1021.6 |
| 20260903175713 | 83 | 290 | 0.0 | 1.0 | 0.00 | 0.00 | 0.00 | 38 | 1021.6 |
| 20260903175212 | 83 | 290 | 0.0 | 0.0 | 0.00 | 0.00 | 0.00 | 38 | 1021.6 |
| 20260903174713 | 83 | 290 | 0.0 | 1.0 | 0.00 | 0.00 | 0.00 | 37 | 1021.7 |
| 20260903174214 | 83 | 290 | 0.0 | 1.0 | 0.00 | 0.00 | 0.00 | 37 | 1021.7 |
| 20260903173712 | 83 | 290 | 0.0 | 1.0 | 0.00 | 0.00 | 0.00 | 37 | 1021.7 |
| 20260903173215 | 83 | 290 | 0.0 | 1.0 | 0.00 | 0.00 | 0.00 | 37 | 1021.7 |
| 20260903172712 | 83 | 290 | 0.0 | 0.0 | 0.00 | 0.00 | 0.00 | 38 | 1021.7 |
| 20260903172212 | 84 | 290 | 0.0 | 0.0 | 0.00 | 0.00 | 0.00 | 37 | 1021.7 |
| 20260903171712 | 84 | 290 | 0.0 | 0.0 | 0.00 | 0.00 | 0.00 | 37 | 1021.6 |
| 20260903171211 | 84 | 290 | 0.0 | 1.0 | 0.00 | 0.00 | 0.00 | 36 | 1021.6 |
| 20260903170726 | 84 | 290 | 0.0 | 1.0 | 0.00 | 0.00 | 0.00 | 35 | 1021.6 |
| 20260903170224 | 85 | 290 | 0.0 | 1.0 | 0.00 | 0.00 | 0.00 | 35 | 1021.7 |
| 20260903165715 | 85 | 290 | 0.0 | 1.0 | 0.00 | 0.00 | 0.00 | 36 | 1021.7 |
| 20260903165522 | 85 | 290 | 0.0 | 1.0 | 0.00 | 0.00 | 0.00 | 36 | 1021.7 |
| 20260903164712 | 85 | 290 | 0.0 | 1.0 | 0.00 | 0.00 | 0.00 | 35 | 1021.7 |
| 20260903164211 | 85 | 290 | 0.0 | 1.0 | 0.00 | 0.00 | 0.00 | 35 | 1021.7 |
| 20260903163712 | 85 | 290 | 0.0 | 1.0 | 0.00 | 0.00 | 0.00 | 35 | 1021.7 |
| 20260903163211 | 86 | 290 | 0.0 | 1.0 | 0.00 | 0.00 | 0.00 | 36 | 1021.8 |
| 20260903162710 | 86 | 290 | 0.0 | 1.0 | 0.00 | 0.00 | 0.00 | 35 | 1021.8 |
| 20260903162211 | 86 | 286 | 0.0 | 1.0 | 0.00 | 0.00 | 0.00 | 34 | 1021.8 |
| 20260903162019 | 86 | 290 | 0.0 | 2.0 | 0.00 | 0.00 | 0.00 | 33 | 1021.8 |
| 20260903161213 | 86 | 353 | 0.0 | 2.0 | 0.00 | 0.00 | 0.00 | 33 | 1021.8 |
| 20260903160844 | 86 | 20 | 0.0 | 1.0 | 0.00 | 0.00 | 0.00 | 32 | 1021.7 |
| 20260903160812 | 86 | 20 | 0.0 | 1.0 | 0.00 | 0.00 | 0.00 | 33 | 1021.8 |
| 20260903155712 | 86 | 20 | 0.0 | 1.0 | 0.00 | 0.00 | 0.00 | 33 | 1021.7 |
| 20260903155210 | 87 | 4 | 0.0 | 1.0 | 0.00 | 0.00 | 0.00 | 33 | 1021.8 |
| 20260903154709 | 87 | 109 | 0.0 | 1.0 | 0.00 | 0.00 | 0.00 | 32 | 1021.9 |
| 20260903154307 | 87 | 110 | 0.0 | 1.0 | 0.00 | 0.00 | 0.00 | 33 | 1021.9 |
| 20260903153210 | 88 | 16 | 0.0 | 2.0 | 0.00 | 0.00 | 0.00 | 32 | 1022.0 |
| 20260903152711 | 88 | 63 | 0.0 | 1.0 | 0.00 | 0.00 | 0.00 | 32 | 1022.1 |
| 20260903152210 | 89 | 89 | 0.0 | 1.0 | 0.00 | 0.00 | 0.00 | 31 | 1022.1 |
| 20260903151709 | 89 | 161 | 0.0 | 0.0 | 0.00 | 0.00 | 0.00 | 32 | 1022.0 |
| 20260903151209 | 88 | 49 | 0.0 | 2.0 | 0.00 | 0.00 | 0.00 | 33 | 1022.1 |
| 20260903150723 | 88 | 49 | 0.0 | 4.0 | 0.00 | 0.00 | 0.00 | 32 | 1022.0 |
| 20260903150209 | 89 | 307 | 1.0 | 4.0 | 0.00 | 0.00 | 0.00 | 32 | 1022.1 |
| 20260903145709 | 89 | 16 | 1.0 | 2.0 | 0.00 | 0.00 | 0.00 | 33 | 1022.1 |
| 20260903145209 | 89 | 124 | 0.0 | 3.0 | 0.00 | 0.00 | 0.00 | 33 | 1022.1 |
| 20260903144711 | 89 | 283 | 0.0 | 3.0 | 0.00 | 0.00 | 0.00 | 34 | 1022.1 |
| 20260903144522 | 89 | 99 | 0.0 | 2.0 | 0.00 | 0.00 | 0.00 | 34 | 1022.2 |
| 20260903144025 | 89 | 327 | 0.0 | 2.0 | 0.00 | 0.00 | 0.00 | 34 | 1022.2 |
| 20260903143526 | 90 | 351 | 0.0 | 2.0 | 0.00 | 0.00 | 0.00 | 34 | 1022.3 |
| 20260903142710 | 89 | 358 | 0.0 | 4.0 | 0.00 | 0.00 | 0.00 | 35 | 1022.2 |
| 20260903142522 | 90 | 321 | 1.0 | 4.0 | 0.00 | 0.00 | 0.00 | 35 | 1022.3 |
| 20260903141836 | 89 | 278 | 0.0 | 4.0 | 0.00 | 0.00 | 0.00 | 37 | 1022.3 |
| 20260903141805 | 89 | 276 | 0.0 | 4.0 | 0.00 | 0.00 | 0.00 | 35 | 1022.2 |
| 20260903140708 | 90 | 34 | 0.0 | 4.0 | 0.00 | 0.00 | 0.00 | 37 | 1022.3 |
| 20260903140208 | 89 | 116 | 0.0 | 4.0 | 0.00 | 0.00 | 0.00 | 37 | 1022.4 |
| 20260903135710 | 90 | 63 | 0.0 | 2.0 | 0.00 | 0.00 | 0.00 | 37 | 1022.3 |
| 20260903135524 | 90 | 96 | 0.0 | 1.0 | 0.00 | 0.00 | 0.00 | 36 | 1022.5 |
| 20260903134707 | 90 | 55 | 0.0 | 1.0 | 0.00 | 0.00 | 0.00 | 36 | 1022.5 |
| 20260903134209 | 89 | 55 | 0.0 | 2.0 | 0.00 | 0.00 | 0.00 | 36 | 1022.6 |
| 20260903133706 | 89 | 107 | 0.0 | 4.0 | 0.00 | 0.00 | 0.00 | 37 | 1022.6 |
| 20260903133208 | 89 | 116 | 3.0 | 4.0 | 0.00 | 0.00 | 0.00 | 37 | 1022.7 |
| 20260903132706 | 89 | 75 | 0.0 | 3.0 | 0.00 | 0.00 | 0.00 | 39 | 1022.8 |
| 20260903132210 | 88 | 75 | 1.0 | 5.0 | 0.00 | 0.00 | 0.00 | 39 | 1022.7 |
| 20260903132019 | 88 | 72 | 1.0 | 5.0 | 0.00 | 0.00 | 0.00 | 39 | 1022.8 |
| 20260903131208 | 88 | 71 | 0.0 | 3.0 | 0.00 | 0.00 | 0.00 | 40 | 1022.8 |
| 20260903130705 | 88 | 69 | 1.0 | 3.0 | 0.00 | 0.00 | 0.00 | 40 | 1022.8 |
| 20260903130208 | 88 | 83 | 0.0 | 3.0 | 0.00 | 0.00 | 0.00 | 40 | 1022.9 |
| 20260903125706 | 88 | 285 | 1.0 | 3.0 | 0.00 | 0.00 | 0.00 | 41 | 1022.9 |
| 20260903125205 | 87 | 118 | 0.0 | 6.0 | 0.00 | 0.00 | 0.00 | 43 | 1022.9 |
| 20260903124707 | 87 | 106 | 2.0 | 6.0 | 0.00 | 0.00 | 0.00 | 41 | 1022.9 |
| 20260903124205 | 87 | 316 | 0.0 | 4.0 | 0.00 | 0.00 | 0.00 | 43 | 1023.0 |
| 20260903123706 | 87 | 110 | 1.0 | 4.0 | 0.00 | 0.00 | 0.00 | 41 | 1023.1 |
| 20260903123206 | 87 | 72 | 0.0 | 3.0 | 0.00 | 0.00 | 0.00 | 42 | 1023.1 |
| 20260903123013 | 86 | 100 | 0.0 | 3.0 | 0.00 | 0.00 | 0.00 | 43 | 1023.1 |
| 20260903122205 | 86 | 72 | 1.0 | 4.0 | 0.00 | 0.00 | 0.00 | 43 | 1023.2 |
| 20260903121704 | 86 | 104 | 2.0 | 4.0 | 0.00 | 0.00 | 0.00 | 43 | 1023.2 |
| 20260903121205 | 85 | 82 | 1.0 | 5.0 | 0.00 | 0.00 | 0.00 | 45 | 1023.2 |
| 20260903120720 | 85 | 90 | 2.0 | 5.0 | 0.00 | 0.00 | 0.00 | 44 | 1023.3 |
| 20260903120511 | 86 | 85 | 2.0 | 5.0 | 0.00 | 0.00 | 0.00 | 43 | 1023.4 |
| 20260903115719 | 86 | 100 | 0.0 | 5.0 | 0.00 | 0.00 | 0.00 | 43 | 1023.4 |
| 20260903115207 | 87 | 75 | 0.0 | 4.0 | 0.00 | 0.00 | 0.00 | 42 | 1023.4 |
| 20260903114704 | 85 | 89 | 0.0 | 6.0 | 0.00 | 0.00 | 0.00 | 45 | 1023.5 |
| 20260903114218 | 86 | 104 | 3.0 | 6.0 | 0.00 | 0.00 | 0.00 | 44 | 1023.5 |
| 20260903113705 | 87 | 128 | 1.0 | 2.0 | 0.00 | 0.00 | 0.00 | 44 | 1023.5 |
| 20260903113204 | 86 | 52 | 0.0 | 2.0 | 0.00 | 0.00 | 0.00 | 45 | 1023.6 |
| 20260903112704 | 85 | 96 | 1.0 | 2.0 | 0.00 | 0.00 | 0.00 | 44 | 1023.6 |
| 20260903112204 | 85 | 227 | 0.0 | 1.0 | 0.00 | 0.00 | 0.00 | 46 | 1023.7 |
| 20260903111705 | 84 | 226 | 0.0 | 4.0 | 0.00 | 0.00 | 0.00 | 47 | 1023.8 |
| 20260903111203 | 83 | 63 | 2.0 | 5.0 | 0.00 | 0.00 | 0.00 | 47 | 1023.9 |
| 20260903111018 | 83 | 111 | 2.0 | 5.0 | 0.00 | 0.00 | 0.00 | 48 | 1023.9 |
| 20260903110514 | 84 | 278 | 0.0 | 4.0 | 0.00 | 0.00 | 0.00 | 46 | 1024.0 |
| 20260903105703 | 83 | 71 | 1.0 | 4.0 | 0.00 | 0.00 | 0.00 | 47 | 1024.1 |
| 20260903105204 | 83 | 92 | 2.0 | 4.0 | 0.00 | 0.00 | 0.00 | 47 | 1024.1 |
| 20260903104703 | 83 | 106 | 2.0 | 4.0 | 0.00 | 0.00 | 0.00 | 47 | 1024.1 |
| 20260903104203 | 82 | 75 | 2.0 | 4.0 | 0.00 | 0.00 | 0.00 | 49 | 1024.2 |
| 20260903103702 | 82 | 93 | 1.0 | 5.0 | 0.00 | 0.00 | 0.00 | 48 | 1024.4 |
| 20260903103204 | 82 | 118 | 2.0 | 5.0 | 0.00 | 0.00 | 0.00 | 48 | 1024.5 |
| 20260903102715 | 82 | 104 | 1.0 | 3.0 | 0.00 | 0.00 | 0.00 | 49 | 1024.5 |
| 20260903102513 | 82 | 262 | 0.0 | 3.0 | 0.00 | 0.00 | 0.00 | 50 | 1024.5 |
| 20260903101702 | 82 | 92 | 0.0 | 1.0 | 0.00 | 0.00 | 0.00 | 49 | 1024.5 |